Terminal Aerodrome Forecast
Issued by NWS

Home | Current Version | Previous Version | Graphics & Text | Print | Product List | Glossary On
Versions: 1 2 3 4 5 6 7 8 9 10 11 12 13 14 15 16 17 18 19
000
FTUS43 KMPX 251730
TAFRWF
TAF
KRWF 251730Z 2518/2618 05005KT P6SM SCT025
      TEMPO 2519/2522 SCT025
     FM252200 34003KT P6SM SCT020 BKN100
     FM260200 18006KT P6SM OVC015
     FM260900 19013KT P6SM BKN008 OVC030
     FM261400 29012KT P6SM SCT010 BKN040=

USA.gov is the U.S. government's official web portal to all federal, state and local government web resources and services.